[[{"header":{"parameterUnit":"m.s-1","parameterCategory":1,"la1":30.2991,"la2":30.254,"lo1":-89.0895,"lo2":-89.0444,"dy":0.0017,"dx":0.0017,"nx":28,"ny":28,"refTime":"2024-03-21T21:00:00:Z","depth":0,"parameterNumber":2,"parameterNumberName":"U-component_of_WINDS"},"data":[0,0,0,0,0,0,0,0,0,0,0,0,0,0,0,0,0,0,0,0,0,0,0,0,0,0,0,0,0,0,0,0,0,0,0,0,0,0,0,0,0,0,0,0,0,0,0,0,0,0,0,0,0,0,0,0,0,0,1.3082,1.3081,0,1.2971,1.297,1.2968,1.2933,1.2933,1.2934,1.2934,1.2809,1.2805,1.2801,0,0,0,0,0,0,0,0,0,0,0,0,0,1.3243,1.3241,1.3082,1.3081,1.3079,1.2971,1.297,1.2968,1.2932,1.2933,1.2934,1.2934,1.281,1.2806,1.2801,0,0,0,0,0,0,0,0,0,0,0,0,0,1.3157,1.324,1.3082,1.3049,1.3045,1.2971,1.297,1.2968,1.2932,1.2933,1.2934,1.2935,1.2812,1.2806,1.28,1.2749,0,0,1.2783,1.278,0,0,0,0,0,0,0,0,1.3162,1.3151,1.3055,1.3051,1.3046,1.2967,1.2981,1.2894,1.2932,1.2975,1.2934,1.2935,1.286,1.285,1.2827,1.2743,1.2738,1.2782,1.2779,1.2776,1.2775,0,0,0,0,0,0,0,1.3168,1.3155,1.3038,1.3053,1.3048,1.3032,1.3021,1.2964,1.2914,1.2971,1.2968,1.2956,1.2857,1.2833,1.2824,1.2736,1.2782,1.2777,1.2774,1.2772,1.2589,1.2588,0,0,0,0,0,0,1.3181,1.3161,1.3041,1.3034,1.3107,1.3029,1.3016,1.2991,1.2914,1.2904,1.2955,1.2955,1.2842,1.2831,1.282,1.2748,1.2776,1.2771,1.2768,1.2591,1.2589,1.2587,0,0,0,0,0,0,1.3185,1.3171,1.3046,1.3096,1.3079,1.3026,1.2997,1.2989,1.2964,1.2903,1.2892,1.2941,1.2843,1.2828,1.2765,1.2743,1.2768,1.2763,1.2592,1.259,1.2588,1.2608,0,0,0,0,0,0,1.319,1.3173,1.3159,1.3097,1.3077,1.3,1.2996,1.2986,1.2956,1.2954,1.2887,1.2876,1.2842,1.2773,1.2759,1.2735,1.2759,1.2594,1.2591,1.2589,1.2609,1.2607,1.2605,0,0,0,0,0,1.3196,1.3169,1.3158,1.3144,1.3059,1.2999,1.2987,1.2952,1.2955,1.2936,1.2893,1.2878,1.2747,1.2767,1.2751,1.2725,1.2595,1.2592,1.2589,1.261,1.2607,1.2605,0,0,0,0,0,0,1.3229,1.316,1.3148,1.3101,1.3056,1.2993,1.297,1.2952,1.2902,1.2902,1.2856,1.2841,1.2779,1.2745,1.2769,1.2664,1.2669,1.2663,1.2691,1.2687,1.2685,1.2695,1.2754,0,0,0,0,0,1.323,1.3193,1.3133,1.3096,1.3074,1.3025,1.2998,1.2974,1.2924,1.2904,1.2858,1.2805,1.275,1.2717,1.2664,1.2601,1.2581,1.2574,1.2572,1.257,1.2566,1.2519,1.2513,1.2577,1.2577,1.2577,0,0,1.3234,1.3192,1.3171,1.3101,1.3064,1.3019,1.301,1.2965,1.2929,1.2896,1.2834,1.2796,1.2733,1.2667,1.2636,1.2637,1.2542,1.2566,1.2566,1.2562,1.2515,1.2509,1.2504,1.2575,1.2575,1.2576,0,0,1.3218,1.3184,1.3147,1.3108,1.3051,1.3016,1.3006,1.2943,1.2917,1.2854,1.2825,1.2776,1.2687,1.264,1.2605,1.2555,1.2536,1.2538,1.2529,1.2484,1.2479,1.2474,1.2451,1.2443,1.2533,1.2533,1.2533,0,1.3229,1.3167,1.3129,1.3084,1.305,1.3017,1.2973,1.2935,1.2862,1.2835,1.2837,1.2716,1.2672,1.259,1.2577,1.2551,1.2532,1.2549,1.2483,1.2478,1.2473,1.245,1.2442,1.2534,1.2534,1.2534,1.2534,0,1.3179,1.3134,1.3109,1.3041,1.3003,1.2959,1.2908,1.2872,1.2847,1.2809,1.2737,1.2681,1.2612,1.259,1.2566,1.25,1.2502,1.2494,1.2498,1.2468,1.2445,1.2437,1.2535,1.2535,1.2534,1.2534,0,0,1.3189,1.3093,1.3085,1.3049,1.2977,1.2938,1.2886,1.282,1.2788,1.2733,1.2684,1.2601,1.259,1.2549,1.2517,1.2478,1.2432,1.2473,1.247,1.2464,1.2347,1.2354,1.2346,1.2417,1.2415,1.2414,1.2351,0,1.3162,1.3076,1.3035,1.2964,1.2916,1.2877,1.2829,1.2775,1.2735,1.2682,1.2634,1.2575,1.2568,1.2541,1.25,1.2448,1.2408,1.2451,1.2363,1.2361,1.2383,1.2335,1.2345,1.229,1.2342,1.2341,1.234,0,1.3122,1.3069,1.2994,1.2918,1.2896,1.2857,1.2787,1.274,1.2671,1.2643,1.2592,1.2558,1.2491,1.2496,1.2398,1.2428,1.2386,1.2353,1.2349,1.2342,1.2351,1.2323,1.2272,1.2263,1.2327,1.2328,1.2329,0,1.3133,1.3041,1.2983,1.2953,1.2865,1.2836,1.2796,1.2729,1.2688,1.2623,1.2595,1.2522,1.2481,1.242,1.2364,1.2374,1.2267,1.227,1.2236,1.2237,1.2219,1.2222,1.216,1.2192,1.2193,1.2193,1.2193,0,1.3107,1.3062,1.2985,1.295,1.2892,1.284,1.2782,1.2738,1.2676,1.2624,1.2581,1.2531,1.246,1.2397,1.235,1.227,1.2253,1.2222,1.2211,1.2227,1.2231,1.2202,1.2204,1.219,1.2191,1.2191,1.2192,0,1.3113,1.3061,1.2993,1.2912,1.289,1.2851,1.2778,1.2735,1.2688,1.2621,1.2601,1.2525,1.2448,1.2384,1.2282,1.2249,1.2165,1.2152,1.219,1.2184,1.2153,1.2156,1.2071,1.2054,1.2099,1.2099,1.2099,0,1.3102,1.3065,1.2979,1.2943,1.2904,1.2847,1.2804,1.2744,1.27,1.2612,1.2578,1.2498,1.2432,1.2307,1.2237,1.2155,1.2138,1.2113,1.2126,1.214,1.2134,1.2137,1.2129,1.2114,1.2113,1.2113,1.2113,0,1.3085,1.3058,1.3002,1.2933,1.2883,1.2825,1.2765,1.2735,1.2662,1.2612,1.2534,1.2482,1.2374,1.2292,1.22,1.2148,1.2115,1.2108,1.2095,1.2113,1.2136,1.2119,1.2186,1.2112,1.2112,1.2112,1.2112,1.2112,1.308,1.3043,1.2975,1.2909,1.2857,1.2799,1.2754,1.2698,1.2634,1.2547,1.2511,1.2429,1.2346,1.2221,1.2167,1.2094,1.2091,1.2074,1.2069,1.2066,1.2066,1.2145,1.2077,1.2077,1.2077,1.2077,1.2077,0,1.3059,1.3011,1.2951,1.2869,1.2814,1.2789,1.2717,1.2671,1.2601,1.253,1.2464,1.2367,1.2283,1.2202,1.2111,1.2068,1.2049,1.2045,1.2049,1.2035,1.2077,1.2096,1.2062,1.2062,1.2062,1.2062,1.2062,1.2062,1.3042,1.2976,1.2939,1.2841,1.2791,1.2715,1.2674,1.2616,1.2559,1.2455,1.2386,1.2335,1.2255,1.2156,1.2073,1.205,1.2017,1.2018,1.199,1.2031,1.2034,1.2036,1.2054,1.2011,1.2011,1.1955,1.1954,1.1954]},{"header":{"parameterUnit":"m.s-1","parameterCategory":1,"la1":30.2991,"la2":30.254,"lo1":-89.0895,"lo2":-89.0444,"dy":0.0017,"dx":0.0017,"nx":28,"ny":28,"refTime":"2024-03-21T21:00:00:Z","depth":0,"parameterNumber":3,"parameterNumberName":"V-component_of_WINDS"},"data":[0,0,0,0,0,0,0,0,0,0,0,0,0,0,0,0,0,0,0,0,0,0,0,0,0,0,0,0,0,0,0,0,0,0,0,0,0,0,0,0,0,0,0,0,0,0,0,0,0,0,0,0,0,0,0,0,0,0,-4.1799,-4.1791,0,-4.1064,-4.1055,-4.1047,-4.0863,-4.0867,-4.0872,-4.0877,-4.0075,-4.0049,-4.0024,0,0,0,0,0,0,0,0,0,0,0,0,0,-4.2987,-4.2966,-4.18,-4.1791,-4.1782,-4.1065,-4.1055,-4.1045,-4.0862,-4.0868,-4.0874,-4.0879,-4.0083,-4.0053,-4.0021,0,0,0,0,0,0,0,0,0,0,0,0,0,-4.2382,-4.296,-4.1802,-4.1605,-4.158,-4.1067,-4.1054,-4.1042,-4.0861,-4.0868,-4.0875,-4.0882,-4.0093,-4.0056,-4.0017,-3.9632,0,0,-3.9899,-3.9882,0,0,0,0,0,0,0,0,-4.2417,-4.2339,-4.1643,-4.1618,-4.1589,-4.1064,-4.1179,-4.0567,-4.0859,-4.1132,-4.0877,-4.0885,-4.0394,-4.0331,-4.0176,-3.9595,-3.956,-3.9895,-3.9872,-3.9855,-3.9844,0,0,0,0,0,0,0,-4.2459,-4.2369,-4.1507,-4.1633,-4.16,-4.1534,-4.1456,-4.1062,-4.0729,-4.1109,-4.1094,-4.1012,-4.038,-4.0214,-4.0155,-3.9548,-3.9896,-3.9862,-3.9838,-3.9823,-3.8583,-3.8574,0,0,0,0,0,0,-4.2543,-4.2406,-4.153,-4.1485,-4.2031,-4.1507,-4.142,-4.1224,-4.0734,-4.0667,-4.1007,-4.1006,-4.0276,-4.0201,-4.0127,-3.9625,-3.9855,-3.9819,-3.9797,-3.8593,-3.8581,-3.8571,0,0,0,0,0,0,-4.2569,-4.2467,-4.156,-4.1941,-4.1821,-4.1479,-4.126,-4.1206,-4.1039,-4.0658,-4.0592,-4.0901,-4.0279,-4.0181,-3.9753,-3.9595,-3.9801,-3.9766,-3.8604,-3.8589,-3.8576,-3.8632,0,0,0,0,0,0,-4.2604,-4.2478,-4.2343,-4.194,-4.1802,-4.1218,-4.1251,-4.1186,-4.0978,-4.0971,-4.0541,-4.0476,-4.0277,-3.9812,-3.9715,-3.9545,-3.9736,-3.8617,-3.8598,-3.8581,-3.8642,-3.8621,-3.8603,0,0,0,0,0,-4.2647,-4.2383,-4.2338,-4.2233,-4.163,-4.1211,-4.1129,-4.092,-4.0968,-4.0817,-4.0568,-4.0489,-3.9631,-3.9771,-3.9659,-3.9476,-3.8625,-3.8603,-3.8582,-3.8651,-3.8625,-3.8603,0,0,0,0,0,0,-4.2764,-4.2328,-4.2272,-4.1874,-4.1582,-4.1181,-4.0988,-4.0903,-4.058,-4.0584,-4.0323,-4.0226,-3.981,-3.96,-3.9764,-3.9062,-3.9125,-3.908,-3.9216,-3.9188,-3.9169,-3.9222,-3.9703,0,0,0,0,0,-4.2747,-4.2461,-4.2087,-4.177,-4.1628,-4.1333,-4.1143,-4.1007,-4.0687,-4.0558,-4.0279,-3.9957,-3.961,-3.9389,-3.9053,-3.8612,-3.8501,-3.8428,-3.8409,-3.8395,-3.8355,-3.808,-3.8037,-3.85,-3.85,-3.85,0,0,-4.2701,-4.2427,-4.2261,-4.1786,-4.1545,-4.1232,-4.123,-4.0906,-4.0664,-4.0503,-4.0083,-3.9865,-3.9485,-3.9045,-3.8836,-3.8856,-3.8202,-3.8367,-3.8359,-3.8325,-3.8054,-3.801,-3.7971,-3.8485,-3.8488,-3.849,0,0,-4.2458,-4.2233,-4.1935,-4.1691,-4.1328,-4.1131,-4.1059,-4.0666,-4.0518,-4.0096,-3.9962,-3.966,-3.908,-3.8808,-3.8594,-3.8229,-3.8134,-3.8125,-3.8018,-3.7754,-3.7717,-3.7683,-3.7532,-3.7484,-3.8089,-3.8089,-3.8089,0,-4.2444,-4.1989,-4.1788,-4.1466,-4.1249,-4.1101,-4.0781,-4.055,-4.0089,-3.9932,-3.9967,-3.922,-3.8955,-3.8438,-3.8348,-3.8186,-3.8075,-3.817,-3.7743,-3.7706,-3.767,-3.7523,-3.7469,-3.8089,-3.8089,-3.8089,-3.8089,0,-4.1977,-4.166,-4.1459,-4.1029,-4.079,-4.0472,-4.0201,-3.9979,-3.9859,-3.9651,-3.9205,-3.8882,-3.8468,-3.8336,-3.8214,-3.7791,-3.7813,-3.7799,-3.7853,-3.763,-3.7485,-3.7429,-3.8089,-3.8089,-3.8089,-3.8089,0,0,-4.1791,-4.1248,-4.1175,-4.0968,-4.0549,-4.0289,-3.9951,-3.9558,-3.9362,-3.9045,-3.8738,-3.8242,-3.822,-3.7977,-3.782,-3.7591,-3.7294,-3.7598,-3.7584,-3.7537,-3.6781,-3.6786,-3.6726,-3.7234,-3.7222,-3.7213,-3.6807,0,-4.1484,-4.0897,-4.0697,-4.0199,-3.9888,-3.9734,-3.9435,-3.9132,-3.8925,-3.8614,-3.8377,-3.8023,-3.8033,-3.7881,-3.7649,-3.7382,-3.7136,-3.7409,-3.6921,-3.6907,-3.7011,-3.6654,-3.6662,-3.6295,-3.6751,-3.6742,-3.6735,0,-4.105,-4.0734,-4.0209,-3.9811,-3.9672,-3.9412,-3.9021,-3.8736,-3.8378,-3.824,-3.7963,-3.7819,-3.7433,-3.7519,-3.697,-3.716,-3.6946,-3.6782,-3.6762,-3.6697,-3.68,-3.6563,-3.6175,-3.6114,-3.6648,-3.6655,-3.6661,0,-4.0945,-4.0387,-3.9995,-3.9825,-3.9356,-3.917,-3.8962,-3.8615,-3.8384,-3.8037,-3.7879,-3.7489,-3.727,-3.696,-3.6703,-3.6794,-3.6168,-3.6238,-3.6021,-3.6026,-3.5889,-3.5898,-3.5445,-3.5778,-3.5779,-3.578,-3.5781,0,-4.0616,-4.0295,-3.994,-3.9698,-3.9324,-3.9088,-3.8718,-3.8498,-3.8186,-3.7879,-3.7719,-3.743,-3.7118,-3.678,-3.6576,-3.6138,-3.6044,-3.5904,-3.585,-3.591,-3.5926,-3.5758,-3.577,-3.5765,-3.5768,-3.5771,-3.5773,0,-4.0434,-4.0188,-3.9746,-3.9337,-3.9224,-3.8965,-3.8603,-3.8347,-3.8131,-3.7743,-3.7637,-3.7289,-3.6882,-3.66,-3.6075,-3.5935,-3.5455,-3.5414,-3.5581,-3.5551,-3.5344,-3.536,-3.4754,-3.4652,-3.5071,-3.5067,-3.5064,0,-4.0236,-3.9986,-3.9548,-3.9339,-3.9133,-3.8798,-3.8561,-3.831,-3.8066,-3.7629,-3.742,-3.7006,-3.666,-3.6012,-3.5698,-3.5288,-3.5223,-3.5039,-3.516,-3.522,-3.5196,-3.5209,-3.517,-3.5017,-3.5014,-3.5011,-3.5009,0,-3.99,-3.9787,-3.9463,-3.9087,-3.8812,-3.8502,-3.8187,-3.8019,-3.7707,-3.7436,-3.7026,-3.6758,-3.6221,-3.58,-3.5359,-3.5119,-3.4999,-3.4975,-3.4899,-3.495,-3.505,-3.4973,-3.5512,-3.4987,-3.4989,-3.4991,-3.4992,-3.4993,-3.969,-3.9453,-3.9105,-3.874,-3.8479,-3.8185,-3.7921,-3.767,-3.7329,-3.6881,-3.6748,-3.6313,-3.5934,-3.5332,-3.5084,-3.4723,-3.4734,-3.4631,-3.4601,-3.4575,-3.4566,-3.5121,-3.4643,-3.4644,-3.4644,-3.4644,-3.4644,0,-3.9332,-3.9099,-3.8767,-3.8335,-3.804,-3.7975,-3.7616,-3.7368,-3.6994,-3.666,-3.6323,-3.5834,-3.5422,-3.5074,-3.464,-3.4416,-3.4349,-3.4308,-3.4314,-3.4255,-3.4591,-3.4692,-3.4369,-3.4369,-3.4369,-3.4369,-3.4369,-3.4369,-3.9111,-3.8699,-3.8541,-3.7987,-3.7749,-3.7334,-3.7132,-3.6849,-3.6579,-3.6048,-3.5709,-3.549,-3.5138,-3.4676,-3.4284,-3.419,-3.4028,-3.3997,-3.3887,-3.4204,-3.4235,-3.4264,-3.4356,-3.3969,-3.3968,-3.3578,-3.3574,-3.3572]}]]